{"data":{"norad_id":48411,"intl_designator":"2021-038BL","name":"STARLINK-2505","alt_names":[],"object_type":"PAYLOAD","status":"ACTIVE","operator":null,"country":"US","launch_date":"2021-05-04","launch_site_code":"AFETR","launch_vehicle":null,"mission":null,"orbit_class":"UNKNOWN","rcs_meters":null,"size_class":null,"mass_kg":null,"dimensions":null,"purposes":["comms"],"wikipedia_slug":null,"has_3d_model":false,"image_url":null,"decayed_at":null,"tle_current":{"epoch":"2026-05-24T20:07:07.636512Z","epoch_age_seconds":85499,"freshness":"FRESH","line1":"1 48411U 21038BL  26144.83828283  .00008592  00000+0  28818-3 0  9994","line2":"2 48411  53.1593 299.6879 0001122  80.8891 279.2237 15.31713976279649","mean_motion":15.31713976,"eccentricity":0.0001122,"inclination_deg":53.1593,"raan_deg":299.6879,"arg_perigee_deg":80.8891,"mean_anomaly_deg":279.2237,"bstar":0.00028818,"rev_number":27964,"period_min":94.012330145377,"perigee_km":469.92989448923,"apogee_km":471.46677313814,"semimajor_km":6848.8353338137,"source":"CELESTRAK","updated_at":"2026-05-25T13:38:16.713365Z"}}}